Middlesboro, KY

7:09 PM CST on December 10, 2017 (GMT -0600)
Middlesboro

Weather History for K1A6 - October, 2013

Change the Weather History Date:

Thursday, October 24, 2013

  Actual Average (KLOZ) Record (KLOZ)
Temperature  
Mean Temperature 42 °F -  
Max Temperature 52 °F 65 °F 82 °F (2001)
Min Temperature 32 °F 44 °F 24 °F (1962)
Degree Days  
Heating Degree Days 24    
Moisture  
Dew Point 34 °F    
Average Humidity 79    
Maximum Humidity 100    
Minimum Humidity 52    
Precipitation  
Precipitation 0.01 in - - ()
Sea Level Pressure  
Sea Level Pressure 30.17 in    
Wind  
Wind Speed 2 mph (WNW)    
Max Wind Speed 14 mph    
Max Gust Speed 21 mph    
Visibility 9 miles    
Events Fog , Rain    
Averages and records for this station are not official NWS values.
T = Trace of Precipitation, MM = Missing Value Source: NWS Daily Summary

Daily Weather History Graph

Daily Weather History Graph

Search for Another Location

Airport or City:

Trip Planner

Search our weather history database for the weather conditions in past years. The results will help you decide how hot, cold, wet, or windy it might be!

Date:

Astronomy

Oct. 24, 2013 Rise Set
Actual Time 6:50 AM CDT 5:46 PM CDT
Civil Twilight 6:24 AM CDT 6:13 PM CDT
Nautical Twilight 5:54 AM CDT 6:43 PM CDT
Astronomical Twilight 5:24 AM CDT 7:13 PM CDT
Moon 10:13 PM CDT (10/24) 11:47 AM CDT (10/24)
Length of Visible Light 11h 48m
Length of Day
10h 55m
Waning Gibbous, 71% of the Moon is Illuminated
Oct 24
Waning Gibbous
Oct 26
Last Quarter
Nov 3
New
Nov 9
First Quarter
Nov 17
Full

Hourly Weather History & Observations

Time (CDT) Temp. Windchill Dew Point Humidity Pressure Visibility Wind Dir Wind Speed Gust Speed Precip Events Conditions
12:15 AM 32.0 °F - 32.0 °F 100% 30.11 in 7.0 mi Calm Calm - N/A   Overcast
12:35 AM 32.0 °F - 32.0 °F 100% 30.12 in 1.0 mi Calm Calm - N/A   Overcast
12:55 AM 32.0 °F - 32.0 °F 100% 30.12 in 0.5 mi Calm Calm - N/A Fog Fog
1:15 AM 32.0 °F - 32.0 °F 100% 30.13 in 1.0 mi Calm Calm - N/A   Overcast
1:35 AM 32.0 °F - 32.0 °F 100% 30.12 in 0.5 mi Calm Calm - N/A Fog Fog
1:55 AM 32.0 °F - 32.0 °F 100% 30.12 in 0.8 mi Calm Calm - N/A   Overcast
2:15 AM 32.0 °F - 32.0 °F 100% 30.13 in 0.5 mi Calm Calm - N/A Fog Fog
2:35 AM 32.0 °F - 32.0 °F 100% 30.13 in 0.8 mi Calm Calm - N/A   Overcast
2:55 AM 32.5 °F - 32.5 °F 100% 30.13 in 4.0 mi Calm Calm - N/A   Overcast
3:15 AM 32.9 °F - 32.9 °F 100% 30.13 in 5.0 mi Calm Calm - N/A   Overcast
3:35 AM 33.1 °F - 33.1 °F 100% 30.13 in 7.0 mi Calm Calm - N/A   Overcast
3:55 AM 33.6 °F - 33.4 °F 99% 30.13 in 7.0 mi Calm Calm - N/A   Overcast
4:15 AM 33.6 °F - 33.3 °F 99% 30.14 in 10.0 mi Calm Calm - N/A   Overcast
4:35 AM 33.8 °F - 33.6 °F 99% 30.14 in 10.0 mi Calm Calm - N/A   Overcast
4:55 AM 34.0 °F - 33.6 °F 99% 30.14 in 10.0 mi Calm Calm - N/A   Overcast
5:15 AM 34.2 °F - 33.8 °F 99% 30.14 in 10.0 mi Calm Calm - N/A   Overcast
5:35 AM 34.7 °F - 34.0 °F 97% 30.14 in 10.0 mi Calm Calm - N/A   Overcast
5:55 AM 34.7 °F - 34.0 °F 97% 30.14 in 10.0 mi Calm Calm - N/A   Overcast
6:15 AM 34.7 °F - 34.2 °F 98% 30.14 in 10.0 mi Calm Calm - N/A   Overcast
6:35 AM 34.9 °F - 34.2 °F 97% 30.15 in 10.0 mi Calm Calm - N/A   Overcast
6:55 AM 35.2 °F - 34.2 °F 96% 30.15 in 10.0 mi Calm Calm - N/A   Overcast
7:15 AM 35.6 °F - 34.0 °F 94% 30.15 in 10.0 mi Calm Calm - N/A   Overcast
7:35 AM 36.0 °F - 34.7 °F 95% 30.16 in 10.0 mi Calm Calm - N/A   Overcast
7:55 AM 36.0 °F - 34.5 °F 94% 30.16 in 10.0 mi Calm Calm - N/A   Overcast
8:15 AM 36.3 °F - 34.7 °F 94% 30.17 in 10.0 mi Calm Calm - N/A   Overcast
8:35 AM 36.9 °F - 35.6 °F 95% 30.17 in 10.0 mi Calm Calm - N/A   Overcast
8:55 AM 37.4 °F - 35.2 °F 92% 30.18 in 10.0 mi Calm Calm - N/A   Overcast
9:15 AM 38.1 °F - 35.6 °F 91% 30.19 in 10.0 mi Calm Calm - N/A   Overcast
9:35 AM 39.2 °F - 35.6 °F 87% 30.18 in 10.0 mi Calm Calm - N/A   Overcast
9:55 AM 40.6 °F - 36.3 °F 85% 30.18 in 10.0 mi Calm Calm - N/A   Overcast
10:15 AM 42.6 °F - 37.8 °F 83% 30.17 in 10.0 mi Calm Calm - N/A   Overcast
10:35 AM 44.2 °F 42.7 °F 35.8 °F 72% 30.17 in 10.0 mi ENE 3.5 mph - N/A   Overcast
10:55 AM 45.7 °F - 33.8 °F 63% 30.16 in 10.0 mi Calm Calm - N/A   Mostly Cloudy
11:15 AM 47.5 °F - 33.4 °F 58% 30.17 in 10.0 mi WSW 6.9 mph - N/A   Overcast
11:35 AM 48.6 °F - 32.9 °F 55% 30.17 in 10.0 mi West 4.6 mph - N/A   Overcast
11:55 AM 49.1 °F - 32.9 °F 54% 30.17 in 10.0 mi WSW 5.8 mph - N/A   Overcast
12:15 PM 49.3 °F - 33.4 °F 54% 30.15 in 10.0 mi West 5.8 mph - N/A   Overcast
12:35 PM 50.0 °F - 34.0 °F 54% 30.15 in 10.0 mi West 6.9 mph - N/A   Overcast
12:55 PM 50.4 °F - 34.5 °F 55% 30.14 in 10.0 mi West 4.6 mph - N/A   Overcast
1:15 PM 50.4 °F - 34.0 °F 53% 30.14 in 10.0 mi WSW 5.8 mph - N/A   Overcast
1:35 PM 50.5 °F - 34.5 °F 54% 30.14 in 10.0 mi West 8.1 mph - N/A   Overcast
1:55 PM 50.9 °F - 34.0 °F 52% 30.13 in 10.0 mi WNW 5.8 mph - N/A   Mostly Cloudy
2:15 PM 51.1 °F - 33.8 °F 52% 30.13 in 10.0 mi WSW 4.6 mph - N/A   Mostly Cloudy
2:35 PM 50.0 °F - 33.6 °F 53% 30.14 in 10.0 mi West 9.2 mph - N/A   Overcast
2:55 PM 49.3 °F - 34.0 °F 56% 30.14 in 10.0 mi WNW 4.6 mph - N/A   Overcast
3:15 PM 49.1 °F - 35.8 °F 60% 30.14 in 10.0 mi West 3.5 mph - N/A Rain Light Rain
3:35 PM 49.1 °F - 36.1 °F 61% 30.14 in 10.0 mi WNW 3.5 mph - N/A Rain Light Rain
3:55 PM 48.9 °F - 36.0 °F 61% 30.14 in 10.0 mi NW 5.8 mph - N/A   Overcast
4:15 PM 48.4 °F - 37.0 °F 65% 30.14 in 10.0 mi WNW 4.6 mph - N/A   Light Drizzle
4:35 PM 48.2 °F - 36.1 °F 63% 30.15 in 10.0 mi Calm Calm - N/A   Overcast
4:55 PM 48.0 °F - 36.1 °F 63% 30.15 in 10.0 mi Calm Calm - N/A   Overcast
5:15 PM 47.7 °F - 35.6 °F 63% 30.15 in 10.0 mi Calm Calm - N/A   Overcast
5:35 PM 47.3 °F - 35.2 °F 63% 30.16 in 10.0 mi West 4.6 mph - N/A   Overcast
5:55 PM 46.2 °F 45.0 °F 36.3 °F 68% 30.16 in 10.0 mi West 3.5 mph - N/A   Overcast
6:15 PM 46.4 °F 40.4 °F 36.1 °F 67% 30.18 in 10.0 mi NNW 13.8 mph 18.4 mph N/A Rain Rain
6:35 PM 43.7 °F 39.1 °F 37.6 °F 79% 30.20 in 10.0 mi NW 8.1 mph - N/A   Overcast
6:55 PM 43.2 °F 39.7 °F 38.1 °F 82% 30.21 in 10.0 mi NW 5.8 mph - N/A Rain Rain
7:15 PM 42.8 °F 38.6 °F 37.8 °F 82% 30.21 in 10.0 mi NW 6.9 mph - N/A Rain Rain
7:35 PM 42.1 °F 38.4 °F 36.9 °F 82% 30.22 in 10.0 mi WNW 5.8 mph - 0.01 in   Overcast
7:55 PM 42.3 °F 37.9 °F 36.5 °F 80% 30.23 in 10.0 mi NW 6.9 mph - 0.01 in   Light Drizzle
8:15 PM 42.1 °F 35.7 °F 36.3 °F 80% 30.24 in 10.0 mi NNW 11.5 mph 17.3 mph N/A   Overcast
8:35 PM 40.8 °F 34.1 °F 35.6 °F 82% 30.25 in 10.0 mi North 11.5 mph - N/A Rain Rain
8:55 PM 39.6 °F 31.7 °F 32.7 °F 76% 30.26 in 10.0 mi NNW 13.8 mph 20.7 mph N/A Rain Rain
9:15 PM 38.5 °F 32.7 °F 31.6 °F 76% 30.27 in 10.0 mi NW 8.1 mph - N/A   Overcast
9:35 PM 38.5 °F 33.4 °F 30.9 °F 74% 30.29 in 10.0 mi NNW 6.9 mph - N/A   Overcast
9:55 PM 38.3 °F - 31.6 °F 77% 30.29 in 10.0 mi Calm Calm - N/A   Overcast
10:15 PM 37.4 °F 34.9 °F 31.3 °F 79% 30.29 in 10.0 mi North 3.5 mph - N/A   Overcast
10:35 PM 37.4 °F 33.8 °F 29.7 °F 74% 30.30 in 10.0 mi NNW 4.6 mph - N/A   Overcast
10:55 PM 36.9 °F 34.3 °F 28.4 °F 71% 30.30 in 10.0 mi NW 3.5 mph - N/A   Overcast
11:15 PM 36.1 °F 32.3 °F 27.5 °F 71% 30.30 in 10.0 mi NNW 4.6 mph - N/A   Overcast
11:35 PM 35.6 °F 32.8 °F 27.5 °F 72% 30.30 in 10.0 mi NNW 3.5 mph - N/A   Mostly Cloudy
11:55 PM 35.1 °F - 27.1 °F 73% 30.30 in 10.0 mi Calm Calm - N/A   Scattered Clouds